Regional Weather Roundup
Issued by NWS Wakefield, VA

Home | Current Version | Previous Version | Text Only | Print | Product List | Glossary Off
Versions: 1 2 3 4 5 6 7 8 9 10 11 12 13 14 15 16 17 18 19 20 21 22 23 24 25 26 27 28 29 30 31 32 33 34 35 36 37 38 39 40 41 42 43 44 45 46 47 48 49 50

000
ASUS41 KAKQ 072114
RWRAKQ

REGIONAL WEATHER ROUNDUP
NATIONAL WEATHER SERVICE WAKEFIELD VA
400 PM EST SUN FEB 07 2016

Note: "fair" indicates few or no clouds below 12,000 feet with no
significant weather and/or obstructions to visibility. * = Denotes
station may not report precipitation (e.g., rain,snow,etc.),
thunder or fog.

VAZ042-051-052>054-056-072200-
NORTHERN VIRGINIA

CITY           SKY/WX    TMP DP  RH WIND       PRES   REMARKS
WASH NATIONAL  CLOUDY    45  22  40 NE10      30.02S
DULLES         PTSUNNY   44  22  41 N7        30.00F
FORT BELVOIR   FAIR      45  18  33 VRB3      30.00S
QUANTICO       CLOUDY    45  24  43 NE12      30.01F
FREDERICKSBRG* FAIR      44  22  40 NE7       29.99S
STAFFORD*      FAIR      45  19  35 NE5       30.03F
WARRENTON      FAIR      46  26  47 NE6       29.99F
CULPEPER*      FAIR      44  24  45 NE7       30.00F
MANASSAS*      SUNNY     45  21  39 N9        30.00F
LEESBURG*      FAIR      45  27  49 NE7       30.00F
WINCHESTER     FAIR      45  25  45 E3        29.98F
FRONT ROYAL*   FAIR      43  25  49 E3        29.96F
LURAY*         FAIR      43  23  45 CALM      29.96F
$$

VAZ048-049-060>072-079>083-072200-
CENTRAL AND SOUTH CENTRAL VIRGINIA

CITY           SKY/WX    TMP DP  RH WIND       PRES   REMARKS
RICHMOND       CLOUDY    42  23  46 N13       29.97S
CHESTERFIELD*  FAIR     N/A N/A N/A N9        29.97F
PETERSBURG*    FAIR      44  17  32 N10       29.96S
HANOVER        FAIR      44  21  40 N5        29.99F
TAPPAHANNOCK*  FAIR      44  24  45 N7        29.98F
QUINTON*       FAIR      43  24  47 N5        29.96S
CHARLOTTSVILLE FAIR      46  24  42 NE6       29.96F
GORDONSVILLE*  FAIR      45  24  44 NE9       29.97F
ORANGE*        FAIR      45  27  49 N7        30.00F
LOUISA*        FAIR      46  23  39 N7        29.96S
BUMPASS*       FAIR      44  20  37 N5        29.98S
FARMVILLE*     FAIR      46  23  40 N8        29.96S
CREWE*         FAIR      44  20  38 N6        29.96R
FORT PICKETT*  FAIR      43  19  38 N9G16     29.96R
CHASE CITY*    FAIR      43  20  39 N7G16     29.95S
CLARKSVILLE*   FAIR      43  23  45 N5        29.94F
SOUTH HILL*    FAIR      42  22  46 N10       29.99S
LAWRENCEVILLE* CLOUDY    42  24  48 N6        29.93F
EMPORIA*       CLOUDY    41  27  56 NW8       29.93F
$$

VAZ088>098-072200-
SOUTHEAST VIRGINIA

CITY           SKY/WX    TMP DP  RH WIND       PRES   REMARKS
NORFOLK        CLOUDY    41  29  62 N22G35    29.87F
VIRGINIA BEACH LGT RAIN  44  33  65 N23G37    29.85F
NORFOLK NAVAL  CLOUDY    42  29  59 N25G36    29.90F
WEST POINT*    FAIR      42  22  44 N8        29.96F
SALUDA*        FAIR      41  28  60 N10G16    29.95F
NEWPORT NEWS   CLOUDY    42  25  50 N15G25    29.91F
LANGLEY AFB    PTSUNNY   41  28  59 N17G32    29.88F
FORT EUSTIS    PTSUNNY   43  21  41 N8        29.90F
WILLIAMSBURG*  FAIR      45  28  53 NE9       29.93F
HR EXEC AP*    MOCLDY    41  27  56 NE12G23   29.90F
FRANKLIN*      CLOUDY    41  23  49 N13G22    29.90F
US460-WAKEFLD  PTSUNNY   43  24  47 N10G20    29.91F
$$

VAZ020-022-025-037-045-072200-
WEST CENTRAL AND SOUTHWEST VIRGINIA

CITY           SKY/WX    TMP DP  RH WIND       PRES   REMARKS
STAUNTON*      FAIR      46  27  48 CALM      29.96F
WAYNESBORO*    FAIR      41  23  49 N3        29.94F
HOT SPRINGS VA FAIR      39  21  49 CALM      29.86F
LYNCHBURG      FAIR      45  23  42 N5        29.96F
DANVILLE       FAIR      46  22  38 N14       29.96F
SOUTH BOSTON*  FAIR      44  21  39 N8        29.95F
MARTINSVILLE   FAIR      45  20  38 NE8       29.96F
ROANOKE        CLOUDY    47  24  40 NE7       29.95F
BLACKSBURG     FAIR      46  26  45 NW8       29.94F
DUBLIN*        FAIR      47  24  40 NW5       29.92F
MARION*        FAIR      46  22  38 W7        29.95F
HILLSVILLE*    FAIR      44  23  45 N7        29.89F
RICHLANDS*     FAIR      45  16  31 N7        29.93F
WISE*          FAIR      48  10  21 W6        29.95F
ABINGDON*      FAIR      50  18  28 NW5       29.94F
$$

MDZ021>025-VAZ099-100-072200-
SOUTHERN MARYLAND AND THE DELMARVA PENINSULA

CITY           SKY/WX    TMP DP  RH WIND       PRES   REMARKS
PATUXENT RIVER CLOUDY    40  29  64 N10       29.98F
BAY BRIDGE APT   N/A     39  30  70 CALM      30.02R
LEONARDTOWN    CLOUDY    41  27  56 N6        29.99F
DOVER          PTSUNNY   42  32  67 N7        30.00S
GEORGETOWN     CLOUDY    41  27  57 NE9       29.99F
EASTON         CLOUDY    43  28  56 N10       30.04S
CAMBRIDGE      CLOUDY    43  27  52 N7        29.98F
SALISBURY      CLOUDY    42  24  49 NE12      29.97F
OCEAN CITY     CLOUDY    41  31  67 NE14G24   29.97F
WALLOPS ISLAND FAIR      42  26  53 NE16      29.96S
ACCOMACK*      FAIR      41  23  48 NE9G22    29.94S
$$

NCZ012>017-030>032-072200-
NORTH CENTRAL AND EASTERN NORTH CAROLINA

CITY           SKY/WX    TMP DP  RH WIND       PRES   REMARKS
ROANOKE RAPIDS FAIR      41  27  56 N17G23    29.88F
RALEIGH        CLOUDY    44  20  38 N9G20     29.92F
ELIZABETH CITY RAIN      40  36  86 N30G39    29.79F FOG
AHOSKIE*       CLOUDY    40  25  56 N14G23    29.87F
EDENTON*       LGT RAIN  40  35  85 N18G28    29.81S
CURRITUCK*     LGT RAIN  41  39  92 N23G30    29.82S
KILL DEVIL HLS RAIN      44  42  89 N17G29    29.69F
MANTEO         LGT RAIN  44  43  97 NE26G44   29.70F
CAPE HATTERAS  RAIN      48  46  93 N20G41    29.53F FOG
TARBORO*       FLURRIES  40  27  61 N14G22    29.86F
GOLDSBORO      CLOUDY    36  36 100 N18       29.81F
WASHINGTON     LGT RAIN  36  32  87 N15G24    29.78S
GREENVILLE     LGT RAIN  36  32  87 N13G20    29.85S
NEW BERN       RAIN      36  33  89 N21G41    29.73F FOG     WCI  25
WILMINGTON     RAIN      36  31  82 N23G31    29.72S WCI  24
$$

VAZ048-072200-
ELSEWHERE

CITY           SKY/WX    TMP DP  RH WIND       PRES   REMARKS
HARRISBURG PA  PTSUNNY   45  20  36 CALM      29.99F
BALTIMORE      CLOUDY    44  18  35 NE9       30.01F
ANNAPOLIS      CLOUDY    42  25  50 N8        30.01S
ANDREWS AFB    FAIR      43  20  41 NE9       29.98F
PHILADELPHIA   CLOUDY    45  23  42 E8        30.03R
HENDERSON NC   CLOUDY    42  18  37 N9G16     29.92F
GREENSBORO     CLOUDY    46  20  35 N12G20    29.92F
ROCKY MOUNT    LGT RAIN  39  26  59 N17       29.86F
$$

VAZ100-072200-
MARINE

STATION/POSITION TIME  TEMP    WIND        PRES    WAVE   SWELL
                       AIR SEA DIR/SP/G            HT/PER HT/PER
                 (UTC) (F)     (DEG/KT/KT) (MB)    (FT/S) (FT/S)
BRANDYWINE LGT   2000   41      40/  9/ 11 1016.3F
CAPE MAY NJ      2000   43 42   50/  6/  9 1016.0F
LEWES DE         2000   42 41   40/ 10/ 11 1016.3R
15NM E FENWICK I 2050   43 45              1014.0F   5/ 5
OCEAN-CITY-INLET 2000   41 41   30/ 11/ 18 1014.5R
WACHAPREAGUE VA  2000   42 42   10/ 11/ 18 1013.5F
THOMAS POINT MD  2000   39 39   10/ 11/ 12 1016.8F
GOOSES REEF MD   2100   39 40   10/ 14/ 16 1016.4F   1/ 3
COVE POINT MD    2000   37     360/ 14/ 17 1016.8F
SOLOMONS ISLAND  2000   40 41  360/ 10/ 11   N/A
BISHOPS HEAD MD  2000   42 41   30/ 10/ 14 1014.6R
POTOMAC MD       2100   40 40   10/ 10/ 14 1014.2F   1
CAMBRIDGE MD     2000   44 40   10/ 10/ 12 1015.0F
LEWISETTA VA     2000   42 42   30/  8/ 11 1015.2S
RAPPAHANNOCK LGT 2000          360/ 20/ 22 1013.7F
STINGRAY PT      2100   41 42   20/ 17/ 21 1013.5F   2/ 3
YORK RVR RNG VA  2000   41      10/ 23/ 26 1012.6F
YORKTOWN VA      2000   42 43   10/ 14/ 23 1013.6F
JAMESTOWN VA     2100   42 44  360/  8/ 16   N/A     0
DOMINION TERM VA 2000   41      30/ 12/ 20 1013.5F
KIPTOPEKE VA     2000      43   20/ 13/ 19   N/A
CHES BAY BRIDGE  2000   41 43  350/ 24/ 27 1012.5F
CAPE HENRY VA    2000   42      10/ 31/ 35   N/A
CHESAPEAKE LGHT  2000   43      20/ 29/ 32 1011.5S
WILLOUBY STN VA  2000   40      10/ 23/ 25 1027.5S
CAPE HENRY BUOY  2028      45                N/A     8/ 7   2/11
1ST LANDING BUOY 2100      42                N/A     5/ 4
CAPE CHARLES BUO 2026      44                N/A     7/ 6   2/11
OFFSHORE WE BUOY 2021      49                N/A    10/ 7   2/22
64NM E OF VA BCH 2050   51 54   30/ 33/ 39 1006.2F  12/ 8   2/13
DUCK PIER NC     2000   43 44   10/ 28/ 32 1006.6F
44100 DUCK FRF   2024      47                N/A    10/ 7   2/11
44056 DUCK FRF   2011      44                N/A    10/ 8   2/11
OREGON INLET NC  2000   47 45   10/ 20/ 30 1004.8F
HATTERAS NC      2000   48 47   10/ 35/ 41 1001.0F
DIAMOND SHLS NC  2050   57 70   20/ 39/ 51  995.8F  16/ 8
$$



USA.gov is the U.S. government's official web portal to all federal, state and local government web resources and services.